Regional Weather Roundup
Issued by NWS

Home | Current Version | Previous Version | Text Only | Print | Product List | Glossary Off
Versions: 1 2 3 4 5 6 7 8 9 10 11 12 13 14 15 16 17 18 19 20 21 22 23 24 25 26 27 28 29 30 31 32 33 34 35 36 37 38 39 40 41 42 43 44 45 46 47 48 49 50

755
ASUS44 KMEG 292200
RWRTN
TENNESSEE HOURLY STATE WEATHER ROUNDUP
NATIONAL WEATHER SERVICE MEMPHIS TN
500 PM CDT MON AUG 29 2016

TNZ002-004-019-021-049-052-054-088>092-292300-
WEST TENNESSEE

CITY           SKY/WX    TMP DP  RH WIND       PRES   REMARKS
MEMPHIS INTL   CLOUDY    92  72  51 E8        30.03F HX  99
NWS MEMPHIS      N/A     86 N/A N/A MISG        N/A
JACKSON        SUNNY     91  76  61 E8        30.05F HX 103
DYERSBURG      SUNNY     90  73  58 MISG      30.04F HX  98
PARIS          SUNNY     88  75  66 E8        30.09F HX  97
LEXINGTON      SUNNY     90  73  58 NE7       30.06F HX  98
$$

TNZ008-025-027-028-033-062-065-066-292300-
NORTH MIDDLE TENNESSEE

CITY           SKY/WX    TMP DP  RH WIND       PRES   REMARKS
NASHVILLE      MOSUNNY   91  69  48 NE9       30.09F HX  96
CLARKSVILLE    MOSUNNY   90  74  59 NE7       30.09F HX  99
COOKEVILLE     SUNNY     90  73  58 NE7       30.10F HX  98
CROSSVILLE     MOSUNNY   87  67  51 NE8       30.16F HX  90
$$

TNZ061-075-076-078-094-096-097-292300-
SOUTH MIDDLE TENNESSEE

CITY           SKY/WX    TMP DP  RH WIND       PRES   REMARKS
SHELBYVILLE    SUNNY     91  72  52 NE7       30.09F HX  98
$$

TNZ017-018-042-046-047-292300-
NORTHEAST TENNESSEE

CITY           SKY/WX    TMP DP  RH WIND       PRES   REMARKS
TRI CITIES     PTSUNNY   90  67  46 N3        30.12F HX  93
$$

TNZ012-013-036-069-073-074-292300-
CENTRAL EAST TENNESSEE

CITY           SKY/WX    TMP DP  RH WIND       PRES   REMARKS
KNOXVILLE      MOSUNNY   92  57  30 NE10      30.07F HX  90
GATLINBURG     SUNNY     90  54  29 E7        30.08F
$$

TNZ083-085-099-292300-
SOUTHEAST TENNESSEE

CITY           SKY/WX    TMP DP  RH WIND       PRES   REMARKS
CHATTANOOGA    MOSUNNY   92  63  38 NE7       30.06F HX  93
$$

SKY/WX REPORTED AS FAIR MEANS FEW OR NO CLOUDS BELOW
12 THOUSAND FEET.





USA.gov is the U.S. government's official web portal to all federal, state and local government web resources and services.